View from above orbital plane
|
View from above satellite
|
Ground track
|
The orbit data is extracted from the following two-line orbital elements,
1 00051U 60009C 21020.76514358 -.00000096 00000-0 -97996-4 0 9996
2 00051 47.2145 35.1123 0104250 89.5169 271.7564 12.18270589690589
Epoch (UTC): | 20 January 2021 18:21:48 |
Eccentricity: | 0.0104250 |
inclination: | 47.2145° |
perigee height: | 1517 km |
apogee height: | 1683 km |
right ascension of ascending node: | 35.1123° |
argument of perigee: | 89.5169° |
revolutions per day: | 12.18270589 |
mean anomaly at epoch: | 271.7564° |
orbit number at epoch: | 69058 |
The dashed part of the orbit path shows where the satellite is in the earth's shadow,
|
|